This demonstration page uses our WeatherBlox Daily Observations layout. Learn more.

Left ArrowRight Arrow

31.84235, -102.49876

Hourly Observations for August 19, 2017

Temp ( °F °C ) Dew Point ( °F °C ) Humidity (%) Winds ( mph kmh ) Pressure ( in mb ) Visibility ( mi km ) Precip ( " mm )
12:53 am 00:53 Clear 77 25 61 16.1 58 58 S 7 11 29.95 1014 10 16 0.00 0.00
1:53 am 01:53 Clear 75 23.9 63 17.2 66 66 WSW 3 6 29.94 1014 10 16 0.00 0.00
2:53 am 02:53 Clear 73 22.8 64 17.8 74 74 N 5 7 29.93 1013 10 16 0.00 0.00
3:53 am 03:53 Mostly Clear 71 21.7 64 17.8 79 79 NE 6 9 29.93 1014 10 16 0.00 0.00
4:53 am 04:53 Clear 71 21.7 65 18.3 81 81 E 7 11 29.93 1014 10 16 0.00 0.00
5:53 am 05:53 Clear 74 23.3 65 18.3 74 74 SE 7 11 29.93 1014 10 16 0.00 0.00
6:53 am 06:53 Clear 74 23.3 65 18.3 74 74 ESE 7 11 29.94 1014 10 16 0.00 0.00
7:53 am 07:53 Sunny 74 23.3 66 18.9 76 76 SE 8 13 29.95 1014 10 16 0.00 0.00
8:53 am 08:53 Sunny 77 25 66 18.9 69 69 S 13 20 29.97 1015 10 16 0.00 0.00
9:53 am 09:53 Sunny 82 27.8 66 18.9 58 58 S 10 17 29.96 1015 10 16 0.00 0.00
10:53 am 10:53 Sunny 85 29.4 64 17.8 50 50 SSW 12 19 29.96 1015 10 16 0.00 0.00
11:53 am 11:53 Sunny 85 29.4 65 18.3 51 51 S 7 11 29.96 1015 10 16 0.00 0.00
12:53 pm 12:53 Sunny 90 32.2 64 17.8 42 42 S 8 13 29.94 1014 10 16 0.00 0.00
1:53 pm 13:53 Sunny 90 32.2 61 16.1 38 38 VRB 5 7 29.93 1013 10 16 0.00 0.00
2:53 pm 14:53 Mostly Sunny 93 33.9 61 16.1 34 34 SSW 9 15 29.90 1013 10 16 0.00 0.00
3:30 pm 15:30 Mostly Cloudy 94 34.4 59 15 31 31 S 12 19 29.77 1008 10 16 0.00 0.00
3:53 pm 15:53 Partly Cloudy 93 33.9 59 15 32 32 SSE 12 19 29.88 1012 10 16 0.00 0.00
4:53 pm 16:53 Mostly Sunny 94 34.4 58 14.4 30 30 SSE 18 30 29.84 1011 10 16 0.00 0.00
5:53 pm 17:53 Sunny 93 33.9 58 14.4 31 31 S 13 20 29.83 1010 10 16 0.00 0.00
6:53 pm 18:53 Sunny 93 33.9 58 14.4 31 31 S 16 26 29.83 1010 10 16 0.00 0.00
7:53 pm 19:53 Sunny 91 32.8 53 11.7 27 27 S 14 22 29.83 1010 10 16 0.00 0.00
8:53 pm 20:53 Clear 87 30.6 58 14.4 37 37 S 8 13 29.86 1011 10 16 0.00 0.00
9:53 pm 21:53 Clear 86 30 59 15 40 40 SSE 9 15 29.88 1012 10 16 0.00 0.00
10:53 pm 22:53 Clear 84 28.9 60 15.6 44 44 SSE 9 15 29.90 1013 10 16 0.00 0.00
11:53 pm 23:53 Clear 82 27.8 61 16.1 49 49 S 8 13 29.91 1013 10 16 0.00 0.00

Powered by AerisWeather